This demonstration page uses our WeatherBlox Daily Observations layout. Learn more.

Left ArrowRight Arrow

39.51506, -84.39828

Hourly Observations for March 16, 2021

Temp ( °F °C ) Dew Point ( °F °C ) Humidity (%) Winds ( mph kmh ) Pressure ( in mb ) Visibility ( mi km ) Precip ( " mm )
12:15 am 00:15 Cloudy 36 2.2 34 1.2 93 93 N N/A 30.03 1017 10 16 N/A
12:35 am 00:35 Cloudy 36 2.3 35 1.4 94 94 E 3 6 30.03 1017 10 16 N/A
12:55 am 00:55 Cloudy 36 2.4 35 1.7 95 95 ENE 5 7 30.02 1017 10 16 N/A
1:15 am 01:15 Cloudy 37 2.5 35 1.9 96 96 NE 5 7 30.01 1016 10 16 N/A
1:35 am 01:35 Cloudy 37 2.6 36 2 96 96 NE 3 6 30.01 1016 10 16 N/A
1:55 am 01:55 Cloudy 37 2.8 36 2.3 97 97 ENE 3 6 30.00 1016 10 16 N/A
2:15 am 02:15 Cloudy 37 2.8 36 2.3 97 97 ENE 5 7 29.99 1015 10 16 N/A
2:35 am 02:35 Cloudy 37 3 37 2.7 98 98 ENE 3 6 29.98 1015 10 16 N/A
2:55 am 02:55 Mostly Cloudy 37 2.6 36 2.4 99 99 E 3 6 29.97 1015 10 16 N/A
3:15 am 03:15 Partly Cloudy 37 2.6 36 2.4 99 99 SE 3 6 29.96 1014 10 16 N/A
3:35 am 03:35 Cloudy with Nearby Thunderstorms 38 3.6 37 2.8 95 95 NW 13 20 30.04 1017 5 8 N/A
3:55 am 03:55 Cloudy 38 3.1 37 2.9 99 99 N 9 15 30.01 1016 7 11 0.02 0.51
4:15 am 04:15 Cloudy 37 3 37 2.8 99 99 ESE 8 13 29.97 1015 10 16 N/A
4:35 am 04:35 Cloudy with Light Rain 38 3.2 38 3.1 99 99 SSE 6 9 29.96 1014 7 11 0.01 0.25
4:55 am 04:55 Cloudy 38 3.3 38 3.2 99 99 NW 5 7 29.97 1015 7 11 0.01 0.25
5:15 am 05:15 Mostly Cloudy with Light Rain 37 3 N/A N/A ESE 7 11 29.94 1014 5 8 0.03 0.76
5:35 am 05:35 Hazy 37 3 N/A N/A N 3 6 29.97 1015 5 8 0.03 0.76
5:55 am 05:55 Cloudy with Haze 37 3 N/A N/A NNW 3 6 29.98 1015 5 8 0.03 0.76
6:15 am 06:15 Cloudy with Haze 37 3 N/A N/A S 7 11 29.96 1014 4 6 N/A
6:35 am 06:35 Hazy 39 4 N/A N/A SW 3 6 29.94 1014 5 8 N/A
6:55 am 06:55 Cloudy with Haze 39 4 N/A N/A S 3 6 29.94 1014 5 8 N/A
7:15 am 07:15 Cloudy with Haze 39 4 N/A N/A SSW 3 6 29.95 1014 5 8 N/A
7:35 am 07:35 Cloudy with Mist and Fog 39 4 N/A N/A NNE 3 6 29.94 1014 3 5 N/A
7:55 am 07:55 Cloudy with Mist and Fog 39 4 N/A N/A SE 5 7 29.94 1014 3 4 N/A
8:15 am 08:15 Cloudy with Mist and Fog 41 5 N/A N/A S 6 9 29.94 1014 3 5 N/A
8:35 am 08:35 Cloudy with Mist and Fog 41 5 N/A N/A S 8 13 29.94 1014 4 6 N/A
8:55 am 08:55 Cloudy with Mist and Fog 41 5 N/A N/A SW 3 6 29.94 1014 4 6 N/A
9:15 am 09:15 Cloudy with Mist and Fog 41 5 N/A N/A SSW 5 7 29.95 1014 3 5 N/A
9:35 am 09:35 Cloudy with Mist and Fog 43 6 N/A N/A S 7 11 29.95 1014 4 6 N/A
9:55 am 09:55 Cloudy with Haze 43 6 N/A N/A SW 6 9 29.96 1015 5 8 N/A
10:15 am 10:15 Cloudy with Haze 43 6 N/A N/A SW 5 7 29.97 1015 4 6 N/A
10:35 am 10:35 Cloudy with Haze 45 7 N/A N/A SW 3 6 29.97 1015 5 8 N/A
10:55 am 10:55 Cloudy with Mist and Fog 44 6.9 44 6.8 99 99 W 5 7 29.98 1015 5 8 N/A
11:15 am 11:15 Cloudy with Mist and Fog 45 7.3 45 7.3 100 100 W 3 6 29.98 1015 4 6 N/A
11:35 am 11:35 Cloudy with Mist and Fog 46 8 N/A N/A WSW 3 6 29.96 1015 3 5 N/A
11:55 am 11:55 Cloudy with Mist and Fog 46 8 N/A N/A WSW 3 6 29.97 1015 3 5 N/A
12:15 pm 12:15 Cloudy with Mist and Fog 47 8.6 47 8.5 99 99 WSW 3 6 29.97 1015 3 5 N/A
12:35 pm 12:35 Cloudy with Mist and Fog 48 9.1 48 9 99 99 SW 3 6 29.97 1015 3 4 N/A
12:55 pm 12:55 Cloudy with Mist and Fog 49 9.3 49 9.2 99 99 SW 3 6 29.97 1015 3 4 N/A
1:15 pm 13:15 Cloudy with Mist and Fog 49 9.6 49 9.4 99 99 N N/A 29.96 1015 3 5 N/A
1:35 pm 13:35 Cloudy with Mist and Fog 51 10.3 49 9.7 96 96 N N/A 29.96 1014 7 11 N/A
1:55 pm 13:55 Cloudy 51 10.8 49 9.7 93 93 W 3 6 29.96 1014 10 16 N/A
2:15 pm 14:15 Cloudy 52 11.2 50 9.8 91 91 NNW 3 6 29.96 1014 10 16 N/A
2:35 pm 14:35 Cloudy 52 11 49 9.7 92 92 N N/A 29.96 1014 10 16 N/A
2:55 pm 14:55 Cloudy 53 11.4 49 9.6 89 89 NW 5 7 29.96 1014 10 16 N/A
3:15 pm 15:15 Cloudy 52 10.9 50 9.8 93 93 N 6 9 29.96 1014 10 16 N/A
3:35 pm 15:35 Cloudy 52 11 50 9.8 92 92 N 5 7 29.96 1014 10 16 N/A
3:55 pm 15:55 Cloudy 52 11.3 50 9.9 91 91 N 6 9 29.97 1015 7 11 N/A
4:15 pm 16:15 Cloudy 53 11.4 50 10 91 91 N 6 9 29.97 1015 7 11 N/A
4:35 pm 16:35 Cloudy 53 11.4 50 10.1 92 92 NNW 5 7 29.97 1015 7 11 N/A
4:55 pm 16:55 Cloudy 53 11.5 50 9.8 89 89 NNW 5 7 29.97 1015 7 11 N/A
5:15 pm 17:15 Cloudy with Mist and Fog 53 11.4 50 9.9 91 91 N 6 9 29.98 1015 7 11 N/A
5:35 pm 17:35 Cloudy 53 11.7 50 9.9 89 89 NNE 6 9 29.97 1015 7 11 N/A
5:55 pm 17:55 Mostly Cloudy 53 11.7 50 9.8 88 88 NNE 3 6 29.97 1015 7 11 N/A
6:15 pm 18:15 Mostly Cloudy 54 12.1 49 9.7 85 85 N N/A 29.97 1015 7 11 N/A
6:35 pm 18:35 Mostly Cloudy 53 11.9 50 9.8 87 87 NNE 5 7 29.97 1015 10 16 N/A
6:55 pm 18:55 Mostly Cloudy 53 11.6 49 9.6 88 88 NNW 5 7 29.98 1015 10 16 N/A
7:15 pm 19:15 Mostly Cloudy 52 11.3 49 9.7 90 90 N 5 7 29.99 1015 10 16 N/A
7:35 pm 19:35 Cloudy 51 10.8 49 9.5 92 92 NNE 5 7 30.00 1016 10 16 N/A
7:55 pm 19:55 Cloudy 51 10.4 49 9.2 92 92 N N/A 29.99 1016 10 16 N/A
8:15 pm 20:15 Cloudy 50 9.8 49 9.2 96 96 N 3 6 30.00 1016 10 16 N/A
8:35 pm 20:35 Cloudy 49 9.4 49 9.2 99 99 N 3 6 30.01 1016 10 16 N/A
8:55 pm 20:55 Cloudy 48 9 48 9 100 100 N N/A 30.01 1016 7 11 N/A
9:15 pm 21:15 Hazy 46 8 N/A N/A N N/A 30.01 1016 5 8 N/A
9:35 pm 21:35 Cloudy with Mist and Fog 45 7 N/A N/A N N/A 30.03 1017 1 2 N/A
9:55 pm 21:55 Mostly Cloudy with Mist and Fog 45 7 N/A N/A N N/A 30.04 1017 1 1 N/A
10:15 pm 22:15 Cloudy with Mist and Fog 43 6 N/A N/A N N/A 30.04 1017 1 2 N/A
10:35 pm 22:35 Mostly Cloudy with Fog 43 6 N/A N/A N 3 6 30.04 1017 1 1 N/A
10:55 pm 22:55 Mostly Cloudy 45 7 N/A N/A N 5 7 30.04 1017 7 11 N/A
11:15 pm 23:15 Mostly Cloudy 45 7 N/A N/A N 6 9 30.05 1017 7 11 N/A
11:35 pm 23:35 Clear 45 7 N/A N/A N 6 9 30.05 1017 10 16 N/A
11:55 pm 23:55 Clear with Mist and Fog 45 7 45 7 100 100 N 6 9 30.06 1018 7 11 N/A

Powered by AerisWeather